Find Local Weather

World > North America > United States > Washington

Tacoma, Washington Regional Weather

Lat: 47.25N, Lon: 122.44W
Wx Zone: WAZ509
Feedback
Expires:201811171300;;439300
ASUS46 KSEW 171210
RWRWA 

WASHINGTON REGIONAL WEATHER ROUNDUP
NATIONAL WEATHER SERVICE SEATTLE WA
400 AM PST SAT NOV 17 2018

NOTE:"FAIR" INDICATES FEW OR NO CLOUDS BELOW 12,000 FEET WITH NO 
SIGNIFICANT WEATHER AND/OR OBSTRUCTIONS TO VISIBILITY.


WAZ507-509-555>559-171300-
SEATTLE, TACOMA, EVERETT, AND VICINITY
  
CITY           SKY/WX    TMP DP  RH WIND       PRES   REMARKS
EVERETT        CLEAR     39  37  92 N5        30.31R                  
6HR MIN TEMP:  39; 6HR MAX TEMP:  44;                                

BOEING FIELD   CLEAR     46  38  73 VRB6      30.30F                  
6HR MIN TEMP:  46; 6HR MAX TEMP:  50;                                

RENTON         CLEAR     46  39  76 NW13      30.29F                  
6HR MIN TEMP:  46; 6HR MAX TEMP:  50;                                

SEATAC AIRPORT CLEAR     44  39  82 N13       30.28F                  
6HR MIN TEMP:  44; 6HR MAX TEMP:  49;                                

JBLM-MCCHORD   CLEAR     37  37 100 CALM      30.27F FOG              
PUYALLUP       CLOUDY    43  43 100 CALM      30.27S                  
BREMERTON      CLEAR     43  35  73 NE14      30.28F                  
6HR MIN TEMP:  42; 6HR MAX TEMP:  45;                                

JBLM-FT LEWIS  CLEAR     44  44 100 N7        30.26F                  
6HR MIN TEMP:  40; 6HR MAX TEMP:  47;                                

TACOMA NARROWS CLEAR     45  37  73 N10       30.27F                  
6HR MIN TEMP:  45; 6HR MAX TEMP:  48;                                

$$
 

SKY/WX - Weather  TMP - Temperature  DP - Dew Point  RH - Relative Humidity
WIND - Wind Direction/Speed PRES - Barometric Pressure